Wind_Speed
7 6 6 6 5 4 7 10 13 15 16 17 16 16 16 15 13 10 9 7 6 7 7 8 8 7 7 6 5 4 4 4 4 5 5 6 6 6 6 6 6 6 6 6 6 6 6 5 5
7 6 5 5 4 5 8 11 15 17 17 17 16 17 17 15 12 11 10 9 8 8 8 9 9 9 8 7 6 6 5 4 5 5 6 6 6 6 7 7 7 7 7 7 7 7 7 6 6
7 6 5 4 5 7 9 12 16 18 17 18 19 19 17 15 11 10 9 9 9 8 9 9 10 10 9 8 8 7 6 5 6 6 6 7 7 7 7 7 7 8 8 8 8 8 8 7 7
6 6 5 4 5 6 9 14 17 19 19 18 19 19 17 14 10 9 9 9 10 11 10 10 10 10 10 9 8 7 6 6 6 6 7 7 8 8 8 9 9 9 9 9 9 9 9 8 8
5 4 4 5 6 7 10 14 18 21 20 20 20 19 16 14 10 9 9 9 9 11 11 11 11 12 11 11 9 8 7 6 6 7 7 8 8 9 9 10 10 10 10 10 10 10 10 9 9
4 4 4 5 7 7 11 16 19 21 21 21 20 18 18 15 10 10 10 9 9 10 11 12 12 13 13 11 10 9 8 7 7 7 8 9 9 10 10 10 11 11 11 11 11 11 11 10 10
4 5 6 6 5 8 13 17 20 20 21 20 19 19 19 15 13 12 11 10 9 9 11 12 13 13 13 12 11 9 8 8 8 8 9 9 10 10 11 11 11 11 11 11 11 11 11 11 11
6 7 7 6 6 8 13 17 20 20 20 19 19 19 18 17 14 13 12 11 11 11 11 13 13 14 14 13 12 10 10 9 9 9 9 10 10 11 11 11 11 11 11 11 11 11 11 12 11
7 7 7 6 6 9 13 17 19 19 19 19 19 19 19 18 15 14 12 12 14 13 14 15 15 15 15 14 12 12 11 10 9 10 10 10 11 11 11 11 11 11 11 11 11 11 11 11 10
7 7 7 7 8 9 13 16 17 18 18 19 20 19 21 20 16 14 13 14 13 14 14 16 17 16 15 15 14 13 12 11 11 11 10 10 10 10 10 9 10 10 10 10 10 10 10 10 9
8 8 7 7 7 9 12 14 16 17 17 19 21 22 22 20 18 16 14 14 14 15 16 16 18 18 17 16 15 14 13 13 12 12 11 11 10 9 9 8 8 8 8 8 8 8 8 8 8
9 8 7 6 6 8 11 13 15 17 18 19 22 23 23 20 18 16 14 14 14 14 15 16 18 19 18 17 15 14 14 13 12 12 11 10 9 9 8 7 7 6 6 5 6 6 7 7 7
9 7 7 5 5 9 11 14 16 17 18 19 22 23 23 22 19 17 15 14 15 16 16 17 18 20 19 18 16 15 14 13 11 10 10 9 8 8 7 7 6 5 5 5 5 5 6 6 7
7 5 5 5 7 10 12 13 16 17 18 20 22 23 23 22 20 18 15 13 13 15 17 17 17 19 19 17 16 15 14 12 10 9 9 8 7 6 6 6 5 4 4 4 4 4 4 5 5
5 4 4 7 11 13 14 15 18 19 18 20 22 22 23 21 20 18 15 12 11 13 16 16 17 19 19 17 16 16 14 12 10 9 8 6 6 5 4 4 3 2 2 2 2 2 2 3 4
5 4 5 9 13 14 16 17 19 19 19 20 21 21 22 21 19 14 11 9 9 11 14 16 16 17 18 18 16 14 13 11 10 9 7 6 6 5 4 3 3 3 2 1 1 1 1 2 3
7 5 6 10 14 15 16 17 18 18 19 20 20 20 20 20 17 13 9 8 8 10 13 15 15 15 16 17 15 13 12 11 10 9 8 7 6 5 4 4 3 3 2 1 1 1 1 1 2
9 8 8 11 15 17 18 18 18 18 19 20 20 19 19 18 16 12 8 6 7 9 10 14 16 16 17 16 15 14 13 12 10 10 9 8 7 6 5 5 4 3 2 2 1 1 1 1 2
9 8 9 12 15 18 19 19 19 17 18 20 19 19 18 15 14 10 5 3 4 8 10 13 16 17 18 16 15 14 14 12 11 10 10 9 8 7 7 6 5 4 3 2 2 2 2 2 2
9 9 10 13 15 19 20 20 19 18 17 17 16 16 16 15 13 8 4 1 3 6 11 14 15 17 17 15 15 15 15 13 12 11 11 10 10 9 7 6 5 4 3 2 2 2 2 2 2
8 10 12 14 17 19 21 20 19 19 16 13 13 14 14 13 12 9 5 1 2 7 11 13 15 16 17 15 15 15 14 13 12 12 12 11 10 9 8 6 5 4 3 3 2 2 2 3 3
10 10 13 15 17 19 20 20 19 17 13 10 10 10 10 10 11 9 5 2 2 6 9 13 15 16 17 16 16 15 15 14 14 14 13 12 11 9 8 7 6 5 4 2 2 2 2 2 2
13 13 15 17 18 19 19 20 19 17 13 9 7 7 8 8 9 7 5 2 3 6 9 12 14 15 16 17 16 16 16 16 15 14 13 12 11 10 9 8 7 5 4 3 2 1 1 1 2
13 14 15 17 17 19 18 20 16 13 8 4 3 5 6 7 7 6 5 3 3 6 9 11 13 14 15 16 16 16 16 16 15 15 13 12 11 11 10 9 8 6 5 4 3 2 2 2 2
14 16 17 17 17 18 18 18 14 8 4 2 2 4 5 6 6 5 4 2 3 5 8 10 12 13 14 16 16 16 16 16 16 15 14 13 12 12 11 10 9 8 7 6 5 5 5 4 5
13 16 18 19 19 18 18 17 14 10 6 3 3 3 5 5 5 5 4 2 3 5 7 9 11 12 14 14 15 16 17 16 16 15 15 14 13 13 12 11 11 10 9 8 8 8 7 7 7
14 15 16 19 20 20 19 16 12 10 8 5 4 4 4 4 4 4 3 2 2 4 6 7 9 11 12 13 14 16 16 16 16 15 15 15 15 14 14 13 13 12 11 11 11 11 10 10 10
17 16 18 21 21 21 19 15 14 11 9 7 4 4 3 2 2 2 2 1 1 3 4 6 8 9 11 13 13 14 16 15 16 16 16 16 15 15 15 15 14 14 14 14 14 14 14 13 13
19 19 21 21 21 22 20 17 14 13 11 8 6 5 3 1 0 1 0 0 1 2 4 5 6 7 9 12 12 14 16 15 16 17 17 17 17 17 17 17 17 17 16 16 17 17 17 17 17
23 22 23 22 23 23 23 20 16 14 12 10 6 4 4 2 2 2 2 2 2 3 4 5 7 8 9 11 12 14 16 16 17 17 17 18 18 19 19 19 20 20 19 19 20 20 20 20 20
Wind_Direction
349 347 352 1 1 345 341 348 350 343 339 339 335 328 322 316 313 305 295 285 273 252 233 220 211 209 210 214 221 230 246 265 279 288 294 299 302 303 300 303 303 302 305 307 308 308 307 305 303
346 347 354 357 346 326 337 349 350 342 338 334 329 326 322 318 307 297 288 277 265 243 231 221 214 211 211 215 221 227 237 254 270 280 288 292 294 296 297 298 298 298 299 300 302 304 305 302 299
341 344 347 344 324 326 340 345 343 340 338 332 326 324 321 318 309 296 288 272 255 240 233 223 216 213 214 216 219 222 232 250 263 275 283 286 288 288 289 290 291 292 293 295 296 297 300 299 298
335 341 336 331 317 334 340 336 335 334 329 330 324 321 319 318 309 297 287 272 255 247 238 223 216 216 215 215 217 221 230 246 259 270 280 283 284 283 284 286 287 288 290 290 290 293 295 294 293
327 333 331 317 305 328 329 327 327 326 323 325 323 322 318 320 308 298 287 278 263 249 235 221 218 215 216 215 216 221 229 243 256 268 276 279 280 281 282 285 286 287 289 289 289 289 292 292 290
312 302 282 287 297 319 319 319 320 320 320 323 324 323 318 319 312 303 291 286 271 250 231 225 220 218 219 219 220 223 230 241 252 265 272 277 281 282 283 283 284 286 287 288 290 287 287 289 288
291 275 265 276 304 323 319 316 317 318 318 322 324 323 320 322 315 304 290 281 270 250 234 222 220 221 220 219 220 225 235 244 253 263 271 278 282 283 283 283 284 286 288 290 290 288 284 287 290
273 266 261 279 309 319 313 316 320 319 320 325 327 322 319 320 315 303 292 276 265 250 235 222 220 220 220 221 221 225 234 244 253 262 269 275 278 281 282 283 284 284 286 288 290 288 284 287 291
265 259 266 285 297 306 307 314 320 320 324 328 330 325 319 317 314 304 295 278 264 247 233 225 222 217 217 221 223 228 235 243 252 260 267 273 277 278 284 284 281 283 285 285 286 286 286 288 289
262 257 275 287 295 300 307 312 318 321 328 329 329 327 320 316 314 307 295 281 262 245 240 231 222 217 215 219 224 229 236 243 250 257 265 272 276 277 284 284 282 285 283 281 282 283 286 288 289
264 263 276 285 301 308 311 316 321 324 331 331 329 328 323 317 312 305 293 281 263 251 239 227 222 218 215 217 222 228 238 244 248 255 261 266 270 273 280 282 285 288 280 276 279 283 285 289 291
264 260 269 291 312 321 322 327 329 332 335 333 330 330 325 319 311 303 291 281 263 251 234 230 224 218 216 216 219 227 236 241 244 250 256 259 263 270 276 281 284 282 278 281 281 283 288 289 294
271 273 286 303 319 323 325 332 336 340 340 337 334 332 326 319 312 304 288 279 263 243 229 227 225 216 216 216 220 227 233 235 239 246 246 248 255 262 266 273 270 270 273 276 277 277 282 289 295
283 289 300 323 328 331 334 333 333 340 343 339 337 335 330 326 317 307 296 277 260 241 230 226 221 215 213 213 218 223 228 229 232 233 236 238 243 246 255 257 253 262 263 265 273 278 285 296 301
274 278 308 326 329 330 331 334 337 338 341 339 337 335 334 332 322 311 295 274 254 232 226 222 219 210 206 211 217 219 220 219 217 223 230 227 226 227 231 232 231 235 238 250 267 278 296 309 314
245 265 314 335 334 328 330 334 336 338 341 339 337 336 335 333 328 315 296 268 248 230 219 212 213 204 207 212 213 214 210 211 214 221 222 215 209 207 199 190 180 180 182 197 230 270 316 324 333
248 274 318 336 334 331 330 334 333 334 338 337 336 337 338 337 334 324 306 271 248 228 215 213 209 201 202 200 202 203 204 209 213 211 207 202 198 193 181 169 163 168 169 165 143 115 27 351 346
252 273 310 327 326 324 324 327 324 323 332 334 333 337 340 340 337 328 312 271 244 223 216 208 210 200 191 191 197 198 200 205 208 202 199 193 187 183 176 168 165 165 156 144 123 93 64 22 358
261 282 307 313 313 314 314 315 316 317 326 332 334 338 343 342 338 336 319 274 232 213 208 203 202 197 193 194 197 198 199 201 201 198 194 188 182 178 174 171 170 167 158 146 124 92 63 29 8
266 283 294 298 303 304 306 309 310 310 319 327 331 338 344 345 345 344 344 269 214 213 199 193 194 194 190 192 195 197 198 198 196 192 186 183 181 178 175 171 169 165 157 140 117 99 76 56 44
263 282 288 292 295 299 300 303 305 306 313 324 332 342 343 349 353 355 357 7 187 193 188 192 193 189 187 190 193 195 192 188 190 186 183 182 182 181 179 177 177 173 163 141 120 105 81 71 68
257 269 283 287 292 295 298 305 306 303 300 318 332 346 351 355 357 359 7 48 145 173 187 190 190 189 190 191 189 190 189 188 187 185 184 185 187 187 188 189 187 182 175 162 141 114 91 78 65
254 265 275 281 288 295 300 305 312 304 298 306 327 354 8 6 6 8 28 78 143 162 175 183 185 188 193 194 190 189 191 189 187 188 189 190 193 195 197 198 196 192 189 187 181 163 109 53 33
249 260 269 277 285 294 302 308 315 308 303 294 332 8 16 19 21 25 39 77 138 158 173 182 185 191 194 194 194 191 192 192 192 193 196 197 199 203 205 207 206 206 207 211 221 240 266 299 322
246 257 269 276 284 296 306 312 322 328 330 338 4 23 26 30 30 26 25 71 135 152 163 176 183 189 192 192 192 192 195 196 197 200 203 205 208 210 211 214 215 219 226 232 241 257 270 282 294
247 258 267 277 289 298 306 312 316 322 322 339 10 27 26 34 37 31 37 74 136 146 156 168 178 184 188 192 195 198 200 200 202 205 209 211 214 216 219 222 224 230 237 242 248 258 268 278 287
243 254 266 275 282 289 300 309 313 316 320 331 359 11 14 29 45 42 39 52 114 143 157 170 179 187 193 195 198 200 202 204 207 211 214 217 220 223 226 228 232 239 245 250 254 259 266 274 282
243 249 260 269 275 282 290 301 308 316 320 316 327 341 1 32 43 42 48 57 126 168 175 181 187 195 201 201 203 205 206 210 215 217 219 223 227 230 234 237 241 246 250 254 257 261 265 271 277
243 248 258 268 274 281 286 292 301 302 308 308 316 317 318 296 304 333 296 148 208 206 199 194 199 203 203 204 211 214 216 219 221 222 225 231 234 236 239 243 247 251 254 258 261 263 266 270 274
245 250 254 260 269 277 280 286 291 295 298 304 298 302 312 293 263 269 265 251 246 236 231 228 222 218 216 219 223 224 225 228 231 231 234 238 240 242 246 250 253 255 258 261 264 265 267 269 271
Height
5908 5907 5906 5906 5906 5904 5902 5900 5899 5897 5896 5895 5895 5894 5893 5893 5893 5894 5891 5890 5891 5891 5892 5893 5894 5896 5897 5898 5899 5900 5901 5901 5901 5902 5902 5901 5901 5900 5900 5899 5898 5897 5897 5896 5895 5895 5894 5894 5893
5908 5906 5906 5905 5904 5902 5901 5899 5897 5896 5896 5894 5893 5893 5892 5891 5891 5890 5888 5887 5888 5889 5890 5892 5893 5895 5896 5897 5898 5899 5900 5900 5901 5901 5901 5901 5901 5900 5900 5899 5898 5897 5897 5896 5895 5894 5894 5893 5892
5907 5906 5905 5904 5902 5901 5899 5897 5896 5895 5894 5893 5891 5891 5890 5890 5889 5887 5887 5886 5887 5888 5889 5890 5892 5893 5894 5896 5897 5898 5899 5900 5900 5901 5901 5901 5900 5900 5899 5898 5898 5897 5896 5895 5895 5894 5893 5892 5892
5907 5906 5905 5904 5901 5899 5897 5896 5895 5894 5893 5892 5890 5889 5887 5887 5886 5885 5885 5885 5885 5886 5887 5889 5890 5892 5893 5894 5896 5897 5898 5899 5899 5900 5900 5900 5899 5899 5899 5898 5897 5896 5895 5895 5894 5893 5893 5892 5891
5906 5905 5904 5902 5900 5897 5896 5894 5893 5893 5892 5891 5889 5887 5885 5884 5883 5882 5882 5882 5883 5884 5885 5887 5888 5890 5892 5893 5894 5896 5897 5897 5898 5898 5899 5899 5898 5898 5898 5897 5896 5896 5895 5894 5893 5892 5892 5891 5890
5905 5904 5904 5901 5899 5897 5895 5894 5893 5892 5890 5889 5888 5885 5883 5882 5881 5880 5879 5879 5880 5881 5882 5884 5886 5888 5890 5892 5893 5894 5895 5896 5897 5897 5897 5897 5897 5897 5896 5896 5895 5894 5894 5893 5892 5891 5890 5890 5889
5905 5903 5902 5900 5898 5896 5895 5894 5893 5891 5889 5888 5886 5883 5880 5879 5879 5878 5877 5876 5877 5878 5879 5882 5884 5886 5888 5890 5891 5892 5894 5895 5895 5896 5896 5896 5896 5895 5895 5894 5894 5893 5892 5891 5890 5890 5889 5888 5888
5903 5903 5900 5898 5897 5896 5894 5893 5892 5890 5887 5885 5883 5880 5877 5876 5876 5875 5874 5874 5874 5875 5877 5879 5881 5884 5886 5888 5889 5890 5892 5893 5894 5894 5894 5894 5894 5894 5893 5893 5892 5891 5891 5890 5889 5888 5887 5887 5886
5901 5901 5898 5897 5896 5895 5893 5892 5890 5888 5885 5883 5880 5878 5876 5873 5872 5872 5871 5871 5871 5872 5874 5876 5879 5881 5884 5886 5887 5889 5890 5891 5892 5893 5893 5892 5892 5892 5892 5891 5890 5890 5889 5888 5887 5886 5885 5885 5884
5900 5898 5897 5896 5894 5893 5892 5890 5888 5886 5883 5880 5878 5875 5872 5870 5869 5868 5867 5867 5867 5869 5870 5872 5875 5878 5881 5883 5885 5887 5888 5889 5890 5890 5891 5891 5890 5890 5890 5889 5888 5888 5887 5887 5886 5885 5884 5883 5883
5897 5896 5895 5894 5893 5892 5890 5888 5886 5884 5881 5879 5875 5872 5869 5866 5864 5864 5863 5863 5864 5865 5866 5868 5871 5875 5878 5880 5882 5884 5885 5887 5888 5888 5888 5888 5888 5888 5888 5888 5887 5886 5885 5885 5884 5883 5883 5882 5882
5895 5894 5893 5892 5891 5890 5888 5886 5884 5882 5880 5876 5873 5869 5865 5862 5860 5859 5859 5859 5859 5861 5862 5864 5867 5871 5874 5877 5879 5881 5883 5884 5885 5886 5886 5886 5886 5887 5886 5886 5885 5885 5884 5884 5883 5882 5881 5881 5880
5893 5892 5891 5890 5889 5888 5886 5884 5882 5880 5877 5873 5869 5866 5862 5858 5855 5854 5853 5853 5854 5854 5857 5860 5863 5867 5870 5874 5876 5878 5880 5881 5882 5884 5884 5885 5885 5885 5885 5885 5884 5883 5883 5883 5882 5881 5881 5880 5879
5891 5890 5889 5888 5887 5886 5884 5882 5880 5877 5874 5871 5867 5863 5859 5854 5851 5849 5847 5847 5849 5849 5852 5856 5860 5863 5867 5870 5873 5875 5877 5879 5880 5881 5882 5883 5883 5883 5884 5883 5883 5882 5882 5882 5881 5881 5880 5879 5878
5890 5889 5888 5887 5885 5883 5882 5880 5877 5874 5871 5868 5864 5860 5856 5851 5847 5844 5843 5843 5844 5846 5849 5852 5856 5860 5863 5867 5870 5872 5874 5876 5878 5879 5880 5881 5882 5882 5882 5882 5882 5881 5881 5881 5881 5880 5879 5879 5878
5888 5887 5886 5885 5883 5881 5880 5878 5875 5871 5868 5866 5862 5858 5854 5848 5844 5841 5839 5840 5842 5843 5846 5849 5852 5855 5860 5864 5868 5870 5872 5874 5876 5877 5878 5879 5880 5880 5881 5881 5881 5881 5881 5881 5880 5880 5879 5878 5878
5885 5885 5883 5882 5881 5878 5877 5875 5873 5869 5866 5863 5860 5856 5852 5847 5843 5839 5838 5839 5840 5841 5844 5846 5849 5853 5856 5861 5865 5868 5870 5872 5874 5875 5877 5878 5878 5879 5880 5880 5880 5880 5880 5880 5880 5879 5879 5878 5878
5883 5882 5880 5880 5878 5876 5874 5872 5870 5867 5864 5862 5858 5855 5850 5846 5843 5839 5836 5837 5838 5839 5840 5842 5846 5849 5854 5858 5862 5865 5868 5870 5872 5873 5875 5876 5877 5878 5879 5880 5880 5880 5880 5880 5880 5879 5879 5878 5878
5880 5878 5878 5878 5876 5874 5872 5870 5868 5865 5863 5860 5857 5853 5849 5845 5842 5838 5836 5835 5835 5837 5838 5840 5844 5848 5852 5856 5860 5863 5866 5868 5870 5872 5873 5875 5876 5878 5879 5879 5879 5880 5880 5880 5879 5879 5878 5878 5877
5876 5876 5876 5876 5874 5872 5869 5867 5866 5864 5861 5859 5856 5852 5848 5844 5840 5837 5836 5835 5835 5836 5838 5839 5842 5846 5851 5855 5858 5861 5864 5866 5868 5870 5872 5873 5875 5877 5878 5878 5879 5879 5879 5879 5879 5879 5878 5878 5877
5873 5874 5874 5874 5872 5869 5867 5865 5863 5862 5859 5857 5854 5850 5846 5843 5839 5837 5836 5835 5834 5835 5837 5839 5842 5846 5849 5853 5857 5859 5861 5864 5867 5869 5871 5873 5874 5876 5877 5877 5878 5879 5879 5879 5878 5878 5878 5878 5877
5869 5871 5871 5870 5869 5867 5865 5862 5861 5858 5856 5855 5852 5848 5844 5842 5839 5837 5835 5835 5835 5835 5836 5838 5841 5845 5848 5852 5855 5858 5860 5863 5866 5868 5870 5872 5873 5875 5876 5877 5877 5878 5878 5878 5878 5878 5877 5877 5877
5866 5867 5867 5867 5866 5864 5862 5860 5858 5854 5853 5852 5850 5847 5844 5841 5838 5836 5835 5835 5835 5835 5836 5837 5840 5844 5848 5851 5854 5857 5859 5862 5865 5867 5869 5871 5872 5874 5875 5876 5876 5877 5877 5877 5877 5877 5877 5877 5876
5862 5863 5863 5863 5862 5861 5860 5858 5855 5851 5850 5849 5848 5845 5843 5841 5839 5837 5837 5836 5836 5836 5837 5838 5841 5844 5847 5850 5853 5855 5858 5861 5864 5866 5868 5870 5871 5872 5873 5874 5875 5875 5876 5876 5876 5876 5876 5875 5875
5859 5860 5860 5859 5858 5858 5857 5855 5854 5850 5848 5846 5846 5844 5842 5840 5839 5838 5838 5837 5836 5837 5837 5839 5841 5844 5846 5849 5852 5854 5857 5860 5862 5864 5866 5868 5869 5870 5871 5872 5873 5874 5874 5874 5875 5875 5874 5874 5873
5855 5856 5856 5856 5855 5854 5853 5851 5851 5849 5847 5845 5844 5842 5841 5840 5839 5838 5838 5837 5837 5837 5838 5840 5841 5843 5846 5848 5851 5853 5856 5858 5860 5862 5864 5866 5867 5868 5869 5870 5871 5871 5872 5872 5872 5872 5872 5872 5871
5850 5851 5853 5852 5851 5850 5849 5849 5848 5847 5845 5844 5842 5841 5840 5839 5839 5839 5838 5838 5838 5838 5839 5840 5842 5843 5845 5847 5849 5852 5854 5856 5858 5860 5861 5863 5864 5865 5866 5867 5868 5869 5869 5869 5869 5869 5869 5868 5868
5846 5847 5848 5848 5847 5846 5846 5845 5845 5844 5843 5843 5841 5840 5839 5838 5839 5839 5838 5838 5838 5839 5839 5840 5842 5843 5844 5846 5848 5850 5852 5854 5856 5857 5858 5860 5861 5862 5863 5864 5864 5865 5865 5865 5865 5865 5865 5864 5864
5841 5842 5842 5843 5843 5842 5842 5844 5842 5841 5841 5840 5839 5839 5838 5838 5837 5838 5838 5838 5838 5838 5839 5840 5841 5842 5842 5844 5846 5847 5849 5850 5852 5853 5855 5856 5857 5858 5859 5860 5860 5861 5861 5861 5861 5860 5860 5860 5859
5836 5836 5837 5839 5839 5838 5838 5842 5839 5838 5838 5837 5837 5837 5837 5836 5837 5837 5837 5837 5837 5837 5838 5839 5839 5840 5841 5842 5844 5844 5846 5847 5849 5849 5851 5852 5853 5854 5854 5855 5855 5856 5856 5856 5855 5855 5855 5854 5854